Time,TemperatureF,DewpointF,PressureIn,WindDirection,WindDirectionDegrees,WindSpeedMPH,WindSpeedGustMPH,Humidity,HourlyPrecipIn,Conditions,Clouds,dailyrainin,SoftwareType,DateUTC
2013-02-14 00:02:00,64.9,56.8,30.11,North,6,12.0,27.0,75,0.00,,,0.00,Weather View 32 v70,2013-02-14 10:02:00,
2013-02-14 00:07:00,64.8,56.7,30.11,North,355,18.0,27.0,75,0.00,,,0.00,Weather View 32 v70,2013-02-14 10:07:00,
2013-02-14 00:12:00,64.9,57.1,30.11,North,358,18.0,27.0,76,0.00,,,0.00,Weather View 32 v70,2013-02-14 10:12:00,
2013-02-14 00:17:00,64.9,57.1,30.10,East,80,20.0,27.0,76,0.00,,,0.00,Weather View 32 v70,2013-02-14 10:17:00,
2013-02-14 00:22:00,64.8,57.4,30.10,NNE,14,19.0,26.0,77,0.00,,,0.00,Weather View 32 v70,2013-02-14 10:22:00,
2013-02-14 00:27:00,64.7,57.7,30.10,North,350,18.0,26.0,78,0.00,,,0.00,Weather View 32 v70,2013-02-14 10:27:00,
2013-02-14 00:32:00,64.6,57.6,30.09,North,6,17.0,26.0,78,0.00,,,0.00,Weather View 32 v70,2013-02-14 10:32:00,
2013-02-14 00:37:00,64.5,57.8,30.10,North,10,18.0,26.0,79,0.00,,,0.00,Weather View 32 v70,2013-02-14 10:37:00,
2013-02-14 00:42:00,64.5,58.2,30.10,North,6,19.0,26.0,80,0.00,,,0.00,Weather View 32 v70,2013-02-14 10:42:00,
2013-02-14 00:47:00,64.5,57.8,30.09,North,353,21.0,24.0,79,0.00,,,0.00,Weather View 32 v70,2013-02-14 10:47:00,
2013-02-14 00:52:00,64.4,57.7,30.09,North,360,19.0,24.0,79,0.00,,,0.00,Weather View 32 v70,2013-02-14 10:52:00,
2013-02-14 00:57:00,64.3,57.6,30.09,North,8,13.0,24.0,79,0.00,,,0.00,Weather View 32 v70,2013-02-14 10:57:00,
2013-02-14 01:02:00,64.3,56.9,30.09,NNE,17,10.0,24.0,77,0.00,,,0.00,Weather View 32 v70,2013-02-14 11:02:00,
2013-02-14 01:07:00,64.5,56.4,30.09,NNW,347,13.0,24.0,75,0.00,,,0.00,Weather View 32 v70,2013-02-14 11:07:00,
2013-02-14 01:13:00,64.5,56.4,30.09,North,357,13.0,24.0,75,0.00,,,0.00,Weather View 32 v70,2013-02-14 11:13:00,
2013-02-14 01:18:00,64.6,56.8,30.09,North,357,20.0,24.0,76,0.00,,,0.00,Weather View 32 v70,2013-02-14 11:18:00,
2013-02-14 01:23:00,64.5,56.7,30.09,North,8,14.0,24.0,76,0.00,,,0.00,Weather View 32 v70,2013-02-14 11:23:00,
2013-02-14 01:28:00,64.4,57.0,30.09,NNW,345,16.0,24.0,77,0.00,,,0.00,Weather View 32 v70,2013-02-14 11:28:00,
2013-02-14 01:33:00,64.5,57.1,30.09,NNE,20,11.0,24.0,77,0.00,,,0.00,Weather View 32 v70,2013-02-14 11:33:00,
2013-02-14 01:38:00,64.4,57.0,30.08,NNW,340,17.0,24.0,77,0.00,,,0.00,Weather View 32 v70,2013-02-14 11:38:00,
2013-02-14 01:43:00,64.5,56.7,30.08,North,359,12.0,24.0,76,0.00,,,0.00,Weather View 32 v70,2013-02-14 11:43:00,
2013-02-14 01:48:00,64.6,56.8,30.08,North,356,18.0,23.0,76,0.00,,,0.00,Weather View 32 v70,2013-02-14 11:48:00,
2013-02-14 01:53:00,64.6,56.8,30.08,NNW,344,12.0,23.0,76,0.00,,,0.00,Weather View 32 v70,2013-02-14 11:53:00,
2013-02-14 01:58:00,64.6,57.2,30.07,North,359,17.0,23.0,77,0.00,,,0.00,Weather View 32 v70,2013-02-14 11:58:00,
2013-02-14 02:03:00,64.0,57.3,30.08,North,352,18.0,23.0,79,0.00,,,0.00,Weather View 32 v70,2013-02-14 12:03:00,
2013-02-14 02:08:00,63.5,57.9,30.08,NNE,17,14.0,23.0,82,0.00,,,0.00,Weather View 32 v70,2013-02-14 12:08:00,
2013-02-14 02:13:00,63.3,58.0,30.07,NNW,330,12.0,23.0,83,0.00,,,0.00,Weather View 32 v70,2013-02-14 12:13:00,
2013-02-14 02:18:00,63.2,58.3,30.07,NNW,341,16.0,23.0,84,0.00,,,0.00,Weather View 32 v70,2013-02-14 12:18:00,
2013-02-14 02:23:00,63.5,57.9,30.07,NNW,343,18.0,25.0,82,0.00,,,0.00,Weather View 32 v70,2013-02-14 12:23:00,
2013-02-14 02:28:00,63.5,58.2,30.08,North,6,12.0,25.0,83,0.00,,,0.00,Weather View 32 v70,2013-02-14 12:28:00,
2013-02-14 02:33:00,63.5,58.6,30.06,North,349,23.0,25.0,84,0.00,,,0.00,Weather View 32 v70,2013-02-14 12:33:00,
2013-02-14 02:38:00,63.6,58.3,30.07,NNW,341,21.0,25.0,83,0.00,,,0.00,Weather View 32 v70,2013-02-14 12:38:00,
2013-02-14 02:43:00,63.6,58.0,30.07,North,10,13.0,25.0,82,0.00,,,0.00,Weather View 32 v70,2013-02-14 12:43:00,
2013-02-14 02:48:00,63.6,57.6,30.07,NW,316,12.0,25.0,81,0.00,,,0.00,Weather View 32 v70,2013-02-14 12:48:00,
2013-02-14 02:53:00,63.9,57.6,30.06,North,354,14.0,25.0,80,0.00,,,0.00,Weather View 32 v70,2013-02-14 12:53:00,
2013-02-14 02:58:00,64.0,57.7,30.07,NW,313,11.0,27.0,80,0.00,,,0.00,Weather View 32 v70,2013-02-14 12:58:00,
2013-02-14 03:03:00,64.0,57.3,30.07,North,349,10.0,27.0,79,0.00,,,0.00,Weather View 32 v70,2013-02-14 13:03:00,
2013-02-14 03:08:00,64.1,57.4,30.06,North,1,14.0,27.0,79,0.00,,,0.00,Weather View 32 v70,2013-02-14 13:08:00,
2013-02-14 03:13:00,64.1,57.4,30.07,NW,321,12.0,27.0,79,0.00,,,0.00,Weather View 32 v70,2013-02-14 13:13:00,
2013-02-14 03:18:00,64.3,57.6,30.06,NNE,12,18.0,27.0,79,0.00,,,0.00,Weather View 32 v70,2013-02-14 13:18:00,
2013-02-14 03:23:00,64.5,57.1,30.06,NNE,13,17.0,27.0,77,0.00,,,0.00,Weather View 32 v70,2013-02-14 13:23:00,
2013-02-14 03:28:00,64.6,57.2,30.06,North,354,17.0,27.0,77,0.00,,,0.00,Weather View 32 v70,2013-02-14 13:28:00,
2013-02-14 03:33:00,64.5,57.8,30.07,NW,324,7.0,27.0,79,0.00,,,0.00,Weather View 32 v70,2013-02-14 13:33:00,
2013-02-14 03:38:00,64.4,57.7,30.06,NNW,345,23.0,27.0,79,0.00,,,0.00,Weather View 32 v70,2013-02-14 13:38:00,
2013-02-14 03:43:00,64.3,58.0,30.06,North,10,20.0,27.0,80,0.00,,,0.00,Weather View 32 v70,2013-02-14 13:43:00,
2013-02-14 03:48:00,64.3,58.0,30.06,NNW,338,18.0,27.0,80,0.00,,,0.00,Weather View 32 v70,2013-02-14 13:48:00,
2013-02-14 03:53:00,64.4,57.7,30.05,NNW,336,16.0,28.0,79,0.00,,,0.00,Weather View 32 v70,2013-02-14 13:53:00,
2013-02-14 03:59:00,64.5,57.8,30.06,NNE,32,13.0,28.0,79,0.00,,,0.00,Weather View 32 v70,2013-02-14 13:59:00,
2013-02-14 04:04:00,64.5,57.5,30.05,NNE,22,15.0,29.0,78,0.00,,,0.00,Weather View 32 v70,2013-02-14 14:04:00,
2013-02-14 04:09:00,64.4,57.4,30.05,North,6,15.0,29.0,78,0.00,,,0.00,Weather View 32 v70,2013-02-14 14:09:00,
2013-02-14 04:14:00,64.3,57.3,30.05,NW,316,14.0,29.0,78,0.00,,,0.00,Weather View 32 v70,2013-02-14 14:14:00,
2013-02-14 04:19:00,64.3,57.3,30.04,NNW,332,16.0,29.0,78,0.00,,,0.00,Weather View 32 v70,2013-02-14 14:19:00,
2013-02-14 04:24:00,64.4,57.0,30.04,North,352,20.0,29.0,77,0.00,,,0.00,Weather View 32 v70,2013-02-14 14:24:00,
2013-02-14 04:29:00,64.4,57.4,30.05,North,4,15.0,29.0,78,0.00,,,0.00,Weather View 32 v70,2013-02-14 14:29:00,
2013-02-14 04:34:00,64.6,57.6,30.04,NNW,345,19.0,29.0,78,0.00,,,0.00,Weather View 32 v70,2013-02-14 14:34:00,
2013-02-14 04:39:00,64.5,57.5,30.04,North,5,24.0,29.0,78,0.00,,,0.00,Weather View 32 v70,2013-02-14 14:39:00,
2013-02-14 04:44:00,64.5,57.5,30.04,North,356,24.0,29.0,78,0.00,,,0.00,Weather View 32 v70,2013-02-14 14:44:00,
2013-02-14 04:49:00,64.4,57.4,30.05,North,10,21.0,29.0,78,0.00,,,0.00,Weather View 32 v70,2013-02-14 14:49:00,
2013-02-14 04:54:00,64.5,57.5,30.05,NW,324,20.0,29.0,78,0.00,,,0.00,Weather View 32 v70,2013-02-14 14:54:00,
2013-02-14 04:59:00,64.4,57.4,30.06,NW,325,14.0,29.0,78,0.00,,,0.00,Weather View 32 v70,2013-02-14 14:59:00,
2013-02-14 05:04:00,64.4,57.7,30.06,North,5,13.0,29.0,79,0.00,,,0.00,Weather View 32 v70,2013-02-14 15:04:00,
2013-02-14 05:09:00,64.4,57.4,30.05,North,351,22.0,29.0,78,0.00,,,0.00,Weather View 32 v70,2013-02-14 15:09:00,
2013-02-14 05:14:00,64.6,57.2,30.05,NNE,16,23.0,29.0,77,0.00,,,0.00,Weather View 32 v70,2013-02-14 15:14:00,
2013-02-14 05:19:00,64.5,57.5,30.06,North,7,19.0,29.0,78,0.00,,,0.00,Weather View 32 v70,2013-02-14 15:19:00,
2013-02-14 05:24:00,64.5,57.5,30.06,North,349,18.0,29.0,78,0.00,,,0.00,Weather View 32 v70,2013-02-14 15:24:00,
2013-02-14 05:29:00,64.5,57.1,30.05,North,357,19.0,29.0,77,0.00,,,0.00,Weather View 32 v70,2013-02-14 15:29:00,
2013-02-14 05:34:00,64.5,57.1,30.06,NNE,14,17.0,30.0,77,0.00,,,0.00,Weather View 32 v70,2013-02-14 15:34:00,
2013-02-14 05:39:00,64.5,57.5,30.06,NNW,344,15.0,30.0,78,0.00,,,0.00,Weather View 32 v70,2013-02-14 15:39:00,
2013-02-14 05:44:00,64.5,57.1,30.06,NE,35,14.0,30.0,77,0.00,,,0.00,Weather View 32 v70,2013-02-14 15:44:00,
2013-02-14 05:49:00,64.5,57.5,30.07,NE,37,17.0,30.0,78,0.00,,,0.00,Weather View 32 v70,2013-02-14 15:49:00,
2013-02-14 05:54:00,63.9,57.2,30.07,North,4,24.0,30.0,79,0.00,,,0.00,Weather View 32 v70,2013-02-14 15:54:00,
2013-02-14 05:59:00,63.4,57.8,30.06,North,359,28.0,30.0,82,0.00,,,0.00,Weather View 32 v70,2013-02-14 15:59:00,
2013-02-14 06:04:00,63.1,57.8,30.08,NNE,16,18.0,30.0,83,0.00,,,0.00,Weather View 32 v70,2013-02-14 16:04:00,
2013-02-14 06:09:00,62.9,58.0,30.08,NNW,347,21.0,30.0,84,0.00,,,0.00,Weather View 32 v70,2013-02-14 16:09:00,
2013-02-14 06:14:00,63.2,57.6,30.08,North,358,18.0,30.0,82,0.00,,,0.00,Weather View 32 v70,2013-02-14 16:14:00,
2013-02-14 06:19:00,63.2,57.6,30.08,North,8,18.0,30.0,82,0.00,,,0.00,Weather View 32 v70,2013-02-14 16:19:00,
2013-02-14 06:24:00,63.3,57.7,30.08,North,350,22.0,30.0,82,0.00,,,0.00,Weather View 32 v70,2013-02-14 16:24:00,
2013-02-14 06:30:00,63.6,57.6,30.08,NNE,14,14.0,30.0,81,0.00,,,0.00,Weather View 32 v70,2013-02-14 16:30:00,
2013-02-14 06:35:00,63.8,57.5,30.08,North,356,17.0,30.0,80,0.00,,,0.00,Weather View 32 v70,2013-02-14 16:35:00,
2013-02-14 06:40:00,63.6,57.6,30.09,North,359,16.0,30.0,81,0.00,,,0.00,Weather View 32 v70,2013-02-14 16:40:00,
2013-02-14 06:45:00,63.7,57.7,30.09,NE,35,11.0,30.0,81,0.00,,,0.00,Weather View 32 v70,2013-02-14 16:45:00,
2013-02-14 06:50:00,63.6,57.6,30.08,North,10,17.0,30.0,81,0.00,,,0.00,Weather View 32 v70,2013-02-14 16:50:00,
2013-02-14 06:55:00,63.5,57.5,30.09,North,1,10.0,28.0,81,0.00,,,0.00,Weather View 32 v70,2013-02-14 16:55:00,
2013-02-14 07:00:00,63.9,57.2,30.09,NNE,24,8.0,28.0,79,0.00,,,0.00,Weather View 32 v70,2013-02-14 17:00:00,
2013-02-14 07:05:00,64.0,57.0,30.09,North,349,22.0,28.0,78,0.00,,,0.00,Weather View 32 v70,2013-02-14 17:05:00,
2013-02-14 07:10:00,64.3,56.9,30.09,NNE,13,19.0,28.0,77,0.00,,,0.00,Weather View 32 v70,2013-02-14 17:10:00,
2013-02-14 07:15:00,64.3,57.3,30.09,North,9,9.0,28.0,78,0.00,,,0.00,Weather View 32 v70,2013-02-14 17:15:00,
2013-02-14 07:20:00,64.3,57.3,30.09,North,360,19.0,28.0,78,0.00,,,0.00,Weather View 32 v70,2013-02-14 17:20:00,
2013-02-14 07:25:00,64.4,57.4,30.09,NNW,342,23.0,28.0,78,0.00,,,0.00,Weather View 32 v70,2013-02-14 17:25:00,
2013-02-14 07:30:00,64.5,57.8,30.09,NNW,344,14.0,28.0,79,0.00,,,0.00,Weather View 32 v70,2013-02-14 17:30:00,
2013-02-14 07:35:00,64.7,58.0,30.09,NNW,343,15.0,28.0,79,0.00,,,0.00,Weather View 32 v70,2013-02-14 17:35:00,
2013-02-14 07:40:00,64.7,58.0,30.09,NNE,15,17.0,28.0,79,0.00,,,0.00,Weather View 32 v70,2013-02-14 17:40:00,
2013-02-14 07:45:00,64.8,58.1,30.10,North,1,20.0,28.0,79,0.00,,,0.00,Weather View 32 v70,2013-02-14 17:45:00,
2013-02-14 07:50:00,64.9,58.2,30.09,NNW,330,20.0,28.0,79,0.00,,,0.00,Weather View 32 v70,2013-02-14 17:50:00,
2013-02-14 07:55:00,64.9,58.2,30.09,NNE,25,22.0,28.0,79,0.00,,,0.00,Weather View 32 v70,2013-02-14 17:55:00,
2013-02-14 08:00:00,65.0,58.3,30.10,North,2,24.0,28.0,79,0.00,,,0.00,Weather View 32 v70,2013-02-14 18:00:00,
2013-02-14 08:05:00,65.2,58.5,30.10,NNW,345,16.0,28.0,79,0.00,,,0.00,Weather View 32 v70,2013-02-14 18:05:00,
2013-02-14 08:10:00,65.2,58.5,30.09,NNW,347,19.0,28.0,79,0.00,,,0.00,Weather View 32 v70,2013-02-14 18:10:00,
2013-02-14 08:15:00,65.2,58.5,30.08,NNE,29,20.0,28.0,79,0.00,,,0.00,Weather View 32 v70,2013-02-14 18:15:00,
2013-02-14 08:20:00,65.0,58.3,30.08,NNE,16,25.0,31.0,79,0.00,,,0.00,Weather View 32 v70,2013-02-14 18:20:00,
2013-02-14 08:27:00,64.9,58.6,30.10,NNE,12,21.0,35.0,80,0.00,,,0.00,Weather View 32 v70,2013-02-14 18:27:00,
2013-02-14 08:33:00,64.8,58.8,30.10,North,4,22.0,35.0,81,0.00,,,0.00,Weather View 32 v70,2013-02-14 18:33:00,
2013-02-14 08:38:00,64.9,58.9,30.11,NNW,348,18.0,35.0,81,0.00,,,0.00,Weather View 32 v70,2013-02-14 18:38:00,
2013-02-14 08:44:00,64.9,58.9,30.10,NNE,16,21.0,35.0,81,0.00,,,0.00,Weather View 32 v70,2013-02-14 18:44:00,
2013-02-14 08:49:00,65.2,58.9,30.10,NNW,333,22.0,35.0,80,0.00,,,0.00,Weather View 32 v70,2013-02-14 18:49:00,
2013-02-14 08:55:00,65.3,59.0,30.11,NNW,332,16.0,35.0,80,0.00,,,0.00,Weather View 32 v70,2013-02-14 18:55:00,
2013-02-14 09:00:00,65.4,59.0,30.10,North,355,24.0,35.0,80,0.00,,,0.00,Weather View 32 v70,2013-02-14 19:00:00,
2013-02-14 09:05:00,65.6,59.2,30.11,NW,310,15.0,35.0,80,0.00,,,0.00,Weather View 32 v70,2013-02-14 19:05:00,
2013-02-14 09:11:00,65.8,59.1,30.10,North,8,25.0,35.0,79,0.00,,,0.00,Weather View 32 v70,2013-02-14 19:11:00,
2013-02-14 09:17:00,65.6,59.6,30.11,North,350,17.0,35.0,81,0.00,,,0.00,Weather View 32 v70,2013-02-14 19:17:00,
2013-02-14 09:23:00,65.6,59.2,30.11,North,356,20.0,35.0,80,0.00,,,0.00,Weather View 32 v70,2013-02-14 19:23:00,
2013-02-14 09:28:00,65.6,59.2,30.12,North,8,19.0,31.0,80,0.00,,,0.00,Weather View 32 v70,2013-02-14 19:28:00,
2013-02-14 09:33:00,65.5,59.5,30.11,North,4,24.0,31.0,81,0.00,,,0.00,Weather View 32 v70,2013-02-14 19:33:00,
2013-02-14 09:39:00,65.8,59.1,30.11,NNE,18,27.0,31.0,79,0.00,,,0.00,Weather View 32 v70,2013-02-14 19:39:00,
2013-02-14 09:45:00,65.0,58.3,30.10,North,355,26.0,31.0,79,0.00,,,0.00,Weather View 32 v70,2013-02-14 19:45:00,
2013-02-14 09:51:00,65.3,57.9,30.11,NNE,14,24.0,32.0,77,0.00,,,0.00,Weather View 32 v70,2013-02-14 19:51:00,
2013-02-14 09:56:00,65.4,57.6,30.12,NNW,330,23.0,32.0,76,0.00,,,0.00,Weather View 32 v70,2013-02-14 19:56:00,
2013-02-14 10:03:00,66.0,58.2,30.10,North,358,22.0,32.0,76,0.00,,,0.00,Weather View 32 v70,2013-02-14 20:03:00,
2013-02-14 10:08:00,66.5,58.7,30.11,North,4,28.0,32.0,76,0.00,,,0.00,Weather View 32 v70,2013-02-14 20:08:00,
2013-02-14 10:13:00,66.9,59.4,30.12,NNE,22,23.0,32.0,77,0.00,,,0.00,Weather View 32 v70,2013-02-14 20:13:00,
2013-02-14 10:18:00,66.2,58.8,30.10,North,9,29.0,32.0,77,0.00,,,0.00,Weather View 32 v70,2013-02-14 20:18:00,
2013-02-14 10:23:00,66.4,59.7,30.10,NNE,16,29.0,32.0,79,0.00,,,0.00,Weather View 32 v70,2013-02-14 20:23:00,
2013-02-14 10:29:00,66.6,58.8,30.09,NNE,17,28.0,32.0,76,0.00,,,0.00,Weather View 32 v70,2013-02-14 20:29:00,
2013-02-14 10:35:00,66.8,58.6,30.10,NNE,25,22.0,32.0,75,0.00,,,0.00,Weather View 32 v70,2013-02-14 20:35:00,
2013-02-14 10:47:00,67.0,59.5,30.08,NNE,33,29.0,32.0,77,0.00,,,0.00,Weather View 32 v70,2013-02-14 20:47:00,
2013-02-14 10:52:00,66.8,59.3,30.10,NNE,22,32.0,32.0,77,0.00,,,0.00,Weather View 32 v70,2013-02-14 20:52:00,
2013-02-14 10:58:00,66.7,58.9,30.09,NNE,21,28.0,33.0,76,0.00,,,0.00,Weather View 32 v70,2013-02-14 20:58:00,
2013-02-14 11:03:00,66.9,58.7,30.08,North,8,26.0,33.0,75,0.00,,,0.00,Weather View 32 v70,2013-02-14 21:03:00,
2013-02-14 11:08:00,67.1,58.1,30.10,North,359,30.0,33.0,73,0.00,,,0.00,Weather View 32 v70,2013-02-14 21:08:00,
2013-02-14 11:13:00,67.3,57.5,30.09,NNW,345,28.0,33.0,71,0.00,,,0.00,Weather View 32 v70,2013-02-14 21:13:00,
2013-02-14 11:18:00,67.2,58.2,30.08,North,358,17.0,33.0,73,0.00,,,0.00,Weather View 32 v70,2013-02-14 21:18:00,
2013-02-14 11:25:00,67.6,59.0,30.09,NNE,18,23.0,34.0,74,0.00,,,0.00,Weather View 32 v70,2013-02-14 21:25:00,
2013-02-14 11:30:00,67.4,58.4,30.08,North,360,26.0,34.0,73,0.00,,,0.00,Weather View 32 v70,2013-02-14 21:30:00,
2013-02-14 11:36:00,67.5,58.9,30.08,North,5,21.0,34.0,74,0.00,,,0.00,Weather View 32 v70,2013-02-14 21:36:00,
2013-02-14 11:41:00,67.4,57.2,30.09,NNE,30,20.0,34.0,70,0.00,,,0.00,Weather View 32 v70,2013-02-14 21:41:00,
2013-02-14 11:47:00,67.6,58.2,30.08,NNE,14,24.0,34.0,72,0.00,,,0.00,Weather View 32 v70,2013-02-14 21:47:00,
2013-02-14 11:53:00,67.8,59.2,30.08,North,8,28.0,34.0,74,0.00,,,0.00,Weather View 32 v70,2013-02-14 21:53:00,
2013-02-14 11:59:00,68.1,59.5,30.07,North,1,19.0,34.0,74,0.00,,,0.00,Weather View 32 v70,2013-02-14 21:59:00,
2013-02-14 12:00:00,68.2,59.6,30.07,North,5,21.0,34.0,74,0.00,,,0.00,Weather View 32 v70,2013-02-14 22:00:00,
2013-02-14 12:04:00,68.0,57.8,30.06,NNE,23,24.0,34.0,70,0.00,,,0.00,Weather View 32 v70,2013-02-14 22:04:00,
2013-02-14 12:05:00,67.9,57.7,30.06,NNE,27,23.0,34.0,70,0.00,,,0.00,Weather View 32 v70,2013-02-14 22:05:00,
2013-02-14 12:09:00,68.2,57.6,30.07,NNE,25,24.0,34.0,69,0.00,,,0.00,Weather View 32 v70,2013-02-14 22:09:00,
2013-02-14 12:10:00,68.0,56.2,30.06,North,358,22.0,34.0,66,0.00,,,0.00,Weather View 32 v70,2013-02-14 22:10:00,
2013-02-14 12:15:00,68.2,57.2,30.06,North,9,20.0,34.0,68,0.00,,,0.00,Weather View 32 v70,2013-02-14 22:15:00,
2013-02-14 12:20:00,67.8,58.0,30.06,North,359,23.0,34.0,71,0.00,,,0.00,Weather View 32 v70,2013-02-14 22:20:00,
2013-02-14 12:21:00,67.7,57.9,30.06,NNE,12,17.0,34.0,71,0.00,,,0.00,Weather View 32 v70,2013-02-14 22:21:00,
2013-02-14 12:27:00,68.3,59.3,30.07,NNE,31,18.0,33.0,73,0.00,,,0.00,Weather View 32 v70,2013-02-14 22:27:00,
2013-02-14 12:32:00,67.9,58.1,30.05,North,351,24.0,33.0,71,0.00,,,0.00,Weather View 32 v70,2013-02-14 22:32:00,
2013-02-14 12:40:00,68.0,58.6,30.06,NNE,28,23.0,33.0,72,0.00,,,0.00,Weather View 32 v70,2013-02-14 22:40:00,
2013-02-14 12:46:00,67.4,58.4,30.06,North,349,17.0,34.0,73,0.00,,,0.00,Weather View 32 v70,2013-02-14 22:46:00,
2013-02-14 12:51:00,67.8,58.4,30.05,North,7,22.0,34.0,72,0.00,,,0.00,Weather View 32 v70,2013-02-14 22:51:00,
2013-02-14 13:00:00,67.7,59.8,30.05,North,349,15.0,34.0,76,0.00,,,0.00,Weather View 32 v70,2013-02-14 23:00:00,
2013-02-14 13:15:00,68.0,57.8,30.04,NNW,343,23.0,34.0,70,0.00,,,0.00,Weather View 32 v70,2013-02-14 23:15:00,
2013-02-14 13:18:00,68.1,57.9,30.04,NNE,24,23.0,34.0,70,0.00,,,0.00,Weather View 32 v70,2013-02-14 23:18:00,
2013-02-14 13:20:00,68.1,57.9,30.02,North,351,22.0,34.0,70,0.00,,,0.00,Weather View 32 v70,2013-02-14 23:20:00,
2013-02-14 13:24:00,67.9,56.9,30.02,North,2,22.0,34.0,68,0.00,,,0.00,Weather View 32 v70,2013-02-14 23:24:00,
2013-02-14 13:25:00,67.9,57.3,30.02,NNE,26,22.0,34.0,69,0.00,,,0.00,Weather View 32 v70,2013-02-14 23:25:00,
2013-02-14 13:30:00,67.7,58.3,30.02,North,4,31.0,34.0,72,0.00,,,0.00,Weather View 32 v70,2013-02-14 23:30:00,
2013-02-14 13:40:00,67.8,59.2,30.02,NNE,19,26.0,34.0,74,0.00,,,0.00,Weather View 32 v70,2013-02-14 23:40:00,
2013-02-14 13:48:00,67.9,58.9,30.02,NNW,343,24.0,32.0,73,0.00,,,0.00,Weather View 32 v70,2013-02-14 23:48:00,
2013-02-14 13:50:00,68.0,59.8,30.03,NNE,13,16.0,32.0,75,0.00,,,0.00,Weather View 32 v70,2013-02-14 23:50:00,
2013-02-14 13:55:00,67.7,58.7,30.02,NNW,335,23.0,32.0,73,0.00,,,0.00,Weather View 32 v70,2013-02-14 23:55:00,
2013-02-14 14:01:00,67.7,57.9,30.01,North,8,23.0,32.0,71,0.00,,,0.00,Weather View 32 v70,2013-02-15 00:01:00,
2013-02-14 14:07:00,68.1,58.7,30.02,NW,320,21.0,34.0,72,0.00,,,0.00,Weather View 32 v70,2013-02-15 00:07:00,
2013-02-14 14:10:00,68.2,58.8,30.02,North,359,32.0,34.0,72,0.00,,,0.00,Weather View 32 v70,2013-02-15 00:10:00,
2013-02-14 14:16:00,67.5,58.9,30.00,North,4,28.0,37.0,74,0.00,,,0.00,Weather View 32 v70,2013-02-15 00:16:00,
2013-02-14 14:21:00,67.9,58.9,30.01,North,359,27.0,37.0,73,0.00,,,0.00,Weather View 32 v70,2013-02-15 00:21:00,
2013-02-14 14:27:00,67.8,58.4,30.01,North,352,23.0,37.0,72,0.00,,,0.00,Weather View 32 v70,2013-02-15 00:27:00,
2013-02-14 14:32:00,68.0,58.2,30.02,NNW,342,16.0,37.0,71,0.00,,,0.00,Weather View 32 v70,2013-02-15 00:32:00,
2013-02-14 14:38:00,67.9,58.5,30.01,North,1,26.0,37.0,72,0.00,,,0.00,Weather View 32 v70,2013-02-15 00:38:00,
2013-02-14 14:43:00,67.6,58.2,30.00,North,355,27.0,37.0,72,0.00,,,0.00,Weather View 32 v70,2013-02-15 00:43:00,
2013-02-14 14:48:00,67.7,59.8,30.01,NNW,345,16.0,37.0,76,0.00,,,0.00,Weather View 32 v70,2013-02-15 00:48:00,
2013-02-14 14:55:00,67.5,58.9,29.99,North,349,24.0,37.0,74,0.00,,,0.00,Weather View 32 v70,2013-02-15 00:55:00,
2013-02-14 15:00:00,67.4,59.9,30.00,North,6,25.0,37.0,77,0.00,,,0.00,Weather View 32 v70,2013-02-15 01:00:00,
2013-02-14 15:10:00,67.2,59.7,30.00,North,356,21.0,37.0,77,0.00,,,0.00,Weather View 32 v70,2013-02-15 01:10:00,
2013-02-14 15:15:00,67.1,58.9,30.00,North,352,24.0,36.0,75,0.00,,,0.00,Weather View 32 v70,2013-02-15 01:15:00,
2013-02-14 15:18:00,67.0,59.2,30.02,NE,35,21.0,36.0,76,0.00,,,0.00,Weather View 32 v70,2013-02-15 01:18:00,
2013-02-14 15:20:00,67.2,59.4,30.01,North,357,22.0,36.0,76,0.00,,,0.00,Weather View 32 v70,2013-02-15 01:20:00,
2013-02-14 15:24:00,67.3,58.7,30.00,North,356,20.0,36.0,74,0.00,,,0.00,Weather View 32 v70,2013-02-15 01:24:00,
2013-02-14 15:29:00,67.2,58.2,30.01,NNW,339,16.0,36.0,73,0.00,,,0.00,Weather View 32 v70,2013-02-15 01:29:00,
2013-02-14 15:36:00,67.8,59.2,30.01,North,355,23.0,36.0,74,0.00,,,0.00,Weather View 32 v70,2013-02-15 01:36:00,
2013-02-14 15:41:00,67.4,59.2,30.01,North,350,17.0,36.0,75,0.00,,,0.00,Weather View 32 v70,2013-02-15 01:41:00,
2013-02-14 15:47:00,67.2,59.0,30.01,North,5,21.0,36.0,75,0.00,,,0.00,Weather View 32 v70,2013-02-15 01:47:00,
2013-02-14 15:52:00,67.1,58.9,30.00,NNE,12,22.0,36.0,75,0.00,,,0.00,Weather View 32 v70,2013-02-15 01:52:00,
2013-02-14 15:59:00,67.2,59.4,30.01,NNW,330,28.0,34.0,76,0.00,,,0.00,Weather View 32 v70,2013-02-15 01:59:00,
2013-02-14 16:00:00,67.2,59.4,30.00,North,351,26.0,34.0,76,0.00,,,0.00,Weather View 32 v70,2013-02-15 02:00:00,
2013-02-14 16:10:00,67.0,59.5,30.01,North,8,19.0,31.0,77,0.00,,,0.00,Weather View 32 v70,2013-02-15 02:10:00,
2013-02-14 16:15:00,66.8,59.0,30.01,NNW,334,20.0,34.0,76,0.00,,,0.00,Weather View 32 v70,2013-02-15 02:15:00,
2013-02-14 16:19:00,66.8,59.3,29.99,North,359,30.0,34.0,77,0.00,,,0.00,Weather View 32 v70,2013-02-15 02:19:00,
2013-02-14 16:24:00,66.8,59.7,30.01,North,1,19.0,34.0,78,0.00,,,0.00,Weather View 32 v70,2013-02-15 02:24:00,
2013-02-14 16:29:00,66.7,59.6,30.01,North,359,20.0,34.0,78,0.00,,,0.00,Weather View 32 v70,2013-02-15 02:29:00,
2013-02-14 16:34:00,66.7,59.6,30.00,North,10,24.0,34.0,78,0.00,,,0.00,Weather View 32 v70,2013-02-15 02:34:00,
2013-02-14 16:39:00,66.7,59.6,30.01,NNW,336,20.0,35.0,78,0.00,,,0.00,Weather View 32 v70,2013-02-15 02:39:00,
2013-02-14 16:44:00,66.5,59.8,30.00,NNE,16,23.0,35.0,79,0.00,,,0.00,Weather View 32 v70,2013-02-15 02:44:00,
2013-02-14 16:49:00,66.6,59.9,30.02,North,354,21.0,35.0,79,0.00,,,0.00,Weather View 32 v70,2013-02-15 02:49:00,
2013-02-14 16:54:00,66.5,59.8,30.02,North,354,18.0,35.0,79,0.00,,,0.00,Weather View 32 v70,2013-02-15 02:54:00,
2013-02-14 16:59:00,66.5,59.8,30.01,North,360,25.0,35.0,79,0.00,,,0.00,Weather View 32 v70,2013-02-15 02:59:00,
2013-02-14 17:04:00,66.6,59.9,30.01,NW,314,18.0,35.0,79,0.00,,,0.00,Weather View 32 v70,2013-02-15 03:04:00,
2013-02-14 17:09:00,66.5,60.1,30.02,NNE,22,21.0,35.0,80,0.00,,,0.00,Weather View 32 v70,2013-02-15 03:09:00,
2013-02-14 17:14:00,66.5,60.1,30.02,NNW,348,23.0,36.0,80,0.00,,,0.00,Weather View 32 v70,2013-02-15 03:14:00,
2013-02-14 17:19:00,66.4,60.0,30.01,North,4,26.0,36.0,80,0.00,,,0.00,Weather View 32 v70,2013-02-15 03:19:00,
2013-02-14 17:24:00,66.3,59.6,30.01,North,4,23.0,37.0,79,0.00,,,0.00,Weather View 32 v70,2013-02-15 03:24:00,
2013-02-14 17:29:00,66.2,59.5,30.02,North,10,25.0,37.0,79,0.00,,,0.00,Weather View 32 v70,2013-02-15 03:29:00,
2013-02-14 17:34:00,66.2,59.5,30.01,NNE,19,25.0,37.0,79,0.00,,,0.00,Weather View 32 v70,2013-02-15 03:34:00,
2013-02-14 17:39:00,66.3,59.6,30.02,North,350,22.0,37.0,79,0.00,,,0.00,Weather View 32 v70,2013-02-15 03:39:00,
2013-02-14 17:44:00,66.2,59.5,30.02,NNE,15,17.0,37.0,79,0.00,,,0.00,Weather View 32 v70,2013-02-15 03:44:00,
2013-02-14 17:49:00,66.2,59.5,30.00,North,3,35.0,37.0,79,0.00,,,0.00,Weather View 32 v70,2013-02-15 03:49:00,
2013-02-14 17:54:00,66.2,59.5,29.99,North,10,19.0,37.0,79,0.00,,,0.00,Weather View 32 v70,2013-02-15 03:54:00,
2013-02-14 17:59:00,66.1,59.4,30.01,North,5,30.0,37.0,79,0.00,,,0.00,Weather View 32 v70,2013-02-15 03:59:00,
2013-02-14 18:04:00,66.1,59.4,30.01,North,1,26.0,37.0,79,0.00,,,0.00,Weather View 32 v70,2013-02-15 04:04:00,
2013-02-14 18:09:00,66.2,59.5,30.01,NNW,341,29.0,37.0,79,0.00,,,0.00,Weather View 32 v70,2013-02-15 04:09:00,
2013-02-14 18:14:00,66.2,59.5,30.01,North,351,28.0,37.0,79,0.00,,,0.00,Weather View 32 v70,2013-02-15 04:14:00,
2013-02-14 18:19:00,66.1,59.4,30.02,North,356,33.0,37.0,79,0.00,,,0.00,Weather View 32 v70,2013-02-15 04:19:00,
2013-02-14 18:24:00,66.2,59.5,30.01,NNW,344,27.0,37.0,79,0.00,,,0.00,Weather View 32 v70,2013-02-15 04:24:00,
2013-02-14 18:29:00,66.2,59.5,30.03,NNE,22,24.0,39.0,79,0.00,,,0.00,Weather View 32 v70,2013-02-15 04:29:00,
2013-02-14 18:34:00,66.2,59.5,30.01,North,4,23.0,39.0,79,0.00,,,0.00,Weather View 32 v70,2013-02-15 04:34:00,
2013-02-14 18:39:00,66.2,59.8,30.01,NNE,15,27.0,39.0,80,0.00,,,0.00,Weather View 32 v70,2013-02-15 04:39:00,
2013-02-14 18:44:00,66.0,61.0,30.03,NNE,12,24.0,39.0,84,0.00,,,0.00,Weather View 32 v70,2013-02-15 04:44:00,
2013-02-14 18:49:00,65.4,60.8,30.02,North,10,28.0,39.0,85,0.00,,,0.00,Weather View 32 v70,2013-02-15 04:49:00,
2013-02-14 18:54:00,65.3,60.7,30.03,NNE,16,27.0,39.0,85,0.00,,,0.00,Weather View 32 v70,2013-02-15 04:54:00,
2013-02-14 18:59:00,64.9,60.6,30.03,North,356,22.0,39.0,86,0.00,,,0.00,Weather View 32 v70,2013-02-15 04:59:00,
2013-02-14 19:00:00,64.9,60.6,30.03,NNE,20,22.0,39.0,86,0.00,,,0.00,Weather View 32 v70,2013-02-15 05:00:00,
2013-02-14 19:05:00,64.4,60.1,30.04,NNE,31,22.0,39.0,86,0.00,,,0.00,Weather View 32 v70,2013-02-15 05:05:00,
2013-02-14 19:10:00,64.2,59.9,30.05,NNE,18,20.0,39.0,86,0.00,,,0.00,Weather View 32 v70,2013-02-15 05:10:00,
2013-02-14 19:15:00,64.1,59.5,30.02,NNW,345,26.0,39.0,85,0.00,,,0.00,Weather View 32 v70,2013-02-15 05:15:00,
2013-02-14 19:20:00,64.1,59.2,30.05,North,6,17.0,39.0,84,0.00,,,0.00,Weather View 32 v70,2013-02-15 05:20:00,
2013-02-14 19:26:00,64.2,59.2,30.04,NNE,23,24.0,39.0,84,0.00,,,0.00,Weather View 32 v70,2013-02-15 05:26:00,
2013-02-14 19:31:00,64.4,59.1,30.04,NNW,335,20.0,36.0,83,0.00,,,0.00,Weather View 32 v70,2013-02-15 05:31:00,
2013-02-14 19:36:00,64.5,58.9,30.03,NNW,346,29.0,36.0,82,0.00,,,0.00,Weather View 32 v70,2013-02-15 05:36:00,
2013-02-14 19:41:00,64.8,58.5,30.03,NNW,341,29.0,36.0,80,0.00,,,0.00,Weather View 32 v70,2013-02-15 05:41:00,
2013-02-14 19:46:00,65.0,58.3,30.04,NNW,335,22.0,38.0,79,0.00,,,0.00,Weather View 32 v70,2013-02-15 05:46:00,
2013-02-14 19:51:00,65.1,58.0,30.04,NNE,19,30.0,39.0,78,0.00,,,0.00,Weather View 32 v70,2013-02-15 05:51:00,
2013-02-14 19:56:00,65.0,58.0,30.04,NNW,334,31.0,39.0,78,0.00,,,0.00,Weather View 32 v70,2013-02-15 05:56:00,
2013-02-14 20:01:00,65.0,58.0,30.03,North,355,32.0,39.0,78,0.00,,,0.00,Weather View 32 v70,2013-02-15 06:01:00,
2013-02-14 20:06:00,65.0,58.0,30.06,North,355,30.0,39.0,78,0.00,,,0.00,Weather View 32 v70,2013-02-15 06:06:00,
2013-02-14 20:11:00,64.9,57.9,30.03,North,354,30.0,39.0,78,0.00,,,0.00,Weather View 32 v70,2013-02-15 06:11:00,
2013-02-14 20:16:00,64.8,58.1,30.05,North,6,29.0,39.0,79,0.00,,,0.00,Weather View 32 v70,2013-02-15 06:16:00,
2013-02-14 20:21:00,64.6,58.6,30.06,North,354,25.0,39.0,81,0.00,,,0.00,Weather View 32 v70,2013-02-15 06:21:00,
2013-02-14 20:26:00,64.5,58.9,30.04,North,356,25.0,39.0,82,0.00,,,0.00,Weather View 32 v70,2013-02-15 06:26:00,
2013-02-14 20:31:00,64.3,59.0,30.07,NNW,343,28.0,39.0,83,0.00,,,0.00,Weather View 32 v70,2013-02-15 06:31:00,
2013-02-14 20:36:00,64.4,58.8,30.06,NNW,337,29.0,39.0,82,0.00,,,0.00,Weather View 32 v70,2013-02-15 06:36:00,
2013-02-14 20:41:00,64.7,58.7,30.05,NNW,334,32.0,39.0,81,0.00,,,0.00,Weather View 32 v70,2013-02-15 06:41:00,
2013-02-14 20:46:00,64.9,59.3,30.07,North,10,29.0,39.0,82,0.00,,,0.00,Weather View 32 v70,2013-02-15 06:46:00,
2013-02-14 20:51:00,64.9,59.3,30.07,North,357,21.0,39.0,82,0.00,,,0.00,Weather View 32 v70,2013-02-15 06:51:00,
2013-02-14 20:56:00,64.9,59.3,30.07,North,349,29.0,39.0,82,0.00,,,0.00,Weather View 32 v70,2013-02-15 06:56:00,
2013-02-14 21:01:00,65.0,59.4,30.06,NNE,24,23.0,39.0,82,0.00,,,0.00,Weather View 32 v70,2013-02-15 07:01:00,
2013-02-14 21:06:00,65.2,59.9,30.06,NNW,347,25.0,39.0,83,0.00,,,0.00,Weather View 32 v70,2013-02-15 07:06:00,
2013-02-14 21:11:00,65.2,59.5,30.07,NW,324,32.0,39.0,82,0.00,,,0.00,Weather View 32 v70,2013-02-15 07:11:00,
2013-02-14 21:16:00,65.1,59.8,30.06,NNE,12,23.0,39.0,83,0.00,,,0.00,Weather View 32 v70,2013-02-15 07:16:00,
2013-02-14 21:21:00,65.1,59.8,30.07,NNW,345,19.0,37.0,83,0.00,,,0.00,Weather View 32 v70,2013-02-15 07:21:00,
2013-02-14 21:26:00,65.1,59.8,30.07,North,355,24.0,37.0,83,0.00,,,0.00,Weather View 32 v70,2013-02-15 07:26:00,
2013-02-14 21:31:00,65.1,59.8,30.07,NNW,336,20.0,37.0,83,0.00,,,0.00,Weather View 32 v70,2013-02-15 07:31:00,
2013-02-14 21:36:00,65.2,60.2,30.06,NNW,336,25.0,36.0,84,0.00,,,0.00,Weather View 32 v70,2013-02-15 07:36:00,
2013-02-14 21:41:00,65.1,60.1,30.07,North,352,18.0,36.0,84,0.00,,,0.00,Weather View 32 v70,2013-02-15 07:41:00,
2013-02-14 21:46:00,65.2,59.9,30.06,North,10,22.0,36.0,83,0.00,,,0.00,Weather View 32 v70,2013-02-15 07:46:00,
2013-02-14 21:51:00,65.2,59.9,30.06,NNW,343,25.0,36.0,83,0.00,,,0.00,Weather View 32 v70,2013-02-15 07:51:00,
2013-02-14 21:56:00,65.3,60.0,30.06,North,353,28.0,36.0,83,0.00,,,0.00,Weather View 32 v70,2013-02-15 07:56:00,
2013-02-14 22:01:00,65.4,59.7,30.06,NNW,347,31.0,40.0,82,0.00,,,0.00,Weather View 32 v70,2013-02-15 08:01:00,
2013-02-14 22:06:00,65.4,59.7,30.06,NNW,348,22.0,40.0,82,0.00,,,0.00,Weather View 32 v70,2013-02-15 08:06:00,
2013-02-14 22:11:00,65.3,59.6,30.06,North,355,26.0,40.0,82,0.00,,,0.00,Weather View 32 v70,2013-02-15 08:11:00,
2013-02-14 22:16:00,65.2,59.9,30.07,NNW,337,20.0,40.0,83,0.00,,,0.00,Weather View 32 v70,2013-02-15 08:16:00,
2013-02-14 22:21:00,65.3,59.6,30.05,North,8,26.0,40.0,82,0.00,,,0.00,Weather View 32 v70,2013-02-15 08:21:00,
2013-02-14 22:26:00,65.4,59.7,30.07,North,349,21.0,40.0,82,0.00,,,0.00,Weather View 32 v70,2013-02-15 08:26:00,
2013-02-14 22:31:00,65.4,59.7,30.06,NNW,343,32.0,40.0,82,0.00,,,0.00,Weather View 32 v70,2013-02-15 08:31:00,
2013-02-14 22:36:00,65.5,59.5,30.05,North,354,31.0,40.0,81,0.00,,,0.00,Weather View 32 v70,2013-02-15 08:36:00,
2013-02-14 22:41:00,65.5,59.5,30.05,North,5,27.0,40.0,81,0.00,,,0.00,Weather View 32 v70,2013-02-15 08:41:00,
2013-02-14 22:46:00,65.6,59.2,30.06,North,358,23.0,41.0,80,0.00,,,0.00,Weather View 32 v70,2013-02-15 08:46:00,
2013-02-14 22:51:00,65.6,59.2,30.06,North,10,27.0,41.0,80,0.00,,,0.00,Weather View 32 v70,2013-02-15 08:51:00,
2013-02-14 22:56:00,65.6,59.6,30.06,North,4,26.0,41.0,81,0.00,,,0.00,Weather View 32 v70,2013-02-15 08:56:00,
2013-02-14 23:01:00,65.5,59.5,30.05,North,360,26.0,41.0,81,0.00,,,0.00,Weather View 32 v70,2013-02-15 09:01:00,
2013-02-14 23:06:00,65.6,59.6,30.06,North,4,30.0,41.0,81,0.00,,,0.00,Weather View 32 v70,2013-02-15 09:06:00,
2013-02-14 23:11:00,65.6,59.6,30.05,North,355,20.0,41.0,81,0.00,,,0.00,Weather View 32 v70,2013-02-15 09:11:00,
2013-02-14 23:16:00,65.6,59.2,30.05,WNW,297,18.0,41.0,80,0.00,,,0.00,Weather View 32 v70,2013-02-15 09:16:00,
2013-02-14 23:21:00,65.6,59.2,30.06,NNW,343,24.0,41.0,80,0.00,,,0.00,Weather View 32 v70,2013-02-15 09:21:00,
2013-02-14 23:26:00,65.7,59.3,30.07,North,6,21.0,41.0,80,0.00,,,0.00,Weather View 32 v70,2013-02-15 09:26:00,
2013-02-14 23:31:00,65.6,59.6,30.07,North,359,28.0,41.0,81,0.00,,,0.00,Weather View 32 v70,2013-02-15 09:31:00,
2013-02-14 23:36:00,65.3,59.6,30.07,NNE,14,27.0,41.0,82,0.00,,,0.00,Weather View 32 v70,2013-02-15 09:36:00,
2013-02-14 23:41:00,65.1,59.5,30.07,North,351,24.0,41.0,82,0.00,,,0.00,Weather View 32 v70,2013-02-15 09:41:00,
2013-02-14 23:46:00,64.9,59.6,30.06,NNE,20,26.0,41.0,83,0.00,,,0.00,Weather View 32 v70,2013-02-15 09:46:00,
2013-02-14 23:51:00,64.9,59.6,30.06,North,11,33.0,38.0,83,0.00,,,0.00,Weather View 32 v70,2013-02-15 09:51:00,
2013-02-14 23:56:00,64.8,59.5,30.06,North,359,20.0,38.0,83,0.00,,,0.00,Weather View 32 v70,2013-02-15 09:56:00,